Flag for U.S.A. Weather past 2 weeks in Tucson, Arizona, U.S.A.

Now
63 °F

Sunny.


Feels Like: 63 °F
Forecast: 44 / 74 °F
Wind: 13 mph from East

Location: Davis-Monthan Air Force Base

Current Time: Mar 6, 2015 at 11:23:56 AM

Latest Report: Mar 6, 2015 at 9:58 AM


Visibility: 10 mi

Pressure: 30.08 "Hg

Humidity: 16%

Dew point: 16 °F

Location of TucsonLocation

Historic Weather in Tucson — Graph

°F

Tucson temperature yesterday

Maximum temperature yesterday: 68 °F (at 3:58 PM)
Minimum temperature yesterday: 38 °F (at 6:58 AM)
Average temperature yesterday: 54 °F

Past Weeks' High & Low Weather Summary

 TemperatureHumidityPressure
High78 °F (Feb 19, 3:58 PM)100% (Mar 2, 6:58 PM)30.24 "Hg (Mar 2, 6:58 PM)
Low38 °F (Feb 25, 6:58 AM)10% (Feb 19, 2:58 PM)29.61 "Hg (Feb 27, 3:58 PM)
Average58 °F48%29.90 "Hg
* Reported Feb 19 9:58 AM — Mar 6 9:58 AM, Tucson, Weather by CustomWeather, © 2015

Note: Actual official high and low records may vary slightly from our data, if they occured in-between our weather recording intervals... More about our weather records

Advertising

Tucson weather history for previous 24 hours

 ConditionsComfort  
Time TempWeatherWind HumidityBarometerVisibility
9:58 AM
Fri, Mar 6
63 °FSunny.13 mph16%30.08 "Hg10 mi
8:58 AM57 °FSunny.12 mph26%30.10 "Hg10 mi
7:58 AM51 °FSunny.8 mph32%30.10 "Hg10 mi
6:58 AM40 °FSunny.10 mph53%30.11 "Hg10 mi
5:58 AM43 °FClear.10 mph46%30.10 "Hg10 mi
4:58 AM50 °FClear.13 mph29%30.08 "Hg10 mi
3:58 AM48 °FClear.8 mph36%30.08 "Hg10 mi
2:58 AM46 °FClear.10 mph39%30.11 "Hg10 mi
1:58 AM47 °FClear.8 mph38%30.11 "Hg10 mi
12:58 AM48 °FClear.9 mph38%30.12 "Hg10 mi
11:58 PM
Thu, Mar 5
50 °FClear.9 mph35%30.12 "Hg10 mi
10:58 PM53 °FClear.15 mph29%30.14 "Hg10 mi
9:58 PM57 °FClear.17 mph22%30.14 "Hg10 mi
8:58 PM58 °FClear.15 mph22%30.15 "Hg10 mi
7:58 PM60 °FClear.17 mph20%30.13 "Hg10 mi
6:58 PM62 °FClear.16 mph18%30.13 "Hg10 mi
5:58 PM65 °FSunny.14 mph15%30.12 "Hg10 mi
4:58 PM68 °FSunny.17 mph12%30.10 "Hg10 mi
3:58 PM68 °FSunny.14 mph13%30.11 "Hg10 mi
2:58 PM68 °FSunny.14 mph16%30.11 "Hg10 mi
1:58 PM67 °FSunny.15 mph17%30.13 "Hg10 mi
12:58 PM66 °FSunny.9 mph19%30.17 "Hg10 mi
11:58 AM64 °FSunny.10 mph21%30.20 "Hg10 mi
Weather by CustomWeather, © 2015

See weather overviewHow to use our weather pages